Willkommen auf der Webseite des Flugplatzes Uetersen/Heist PDF Drucken E-Mail

 

Liebe Fliegerfreunde, liebe Gäste und Kunden des Flugplatzes Uetersen,

 

Herr Szaguhn steht mit seinem Tower-Restaurant wieder täglich außer Montags für Sie bereit.

 

 

 

 

Zufallsbild

Aktuelle Termine

Mo Di Mi Do Fr Sa So
29 30 31 1 2 3 4
5 6 7 8 9 10 11
12 13 14 15 16 17 18
19 20 21 22 23 24 25
26 27 28 29 30 1 2

Pilotenwetter

[source: ADDS]
METAR
EDDH 280450Z 23014KT 9999 -RA SCT023 BKN036 16/10 Q1019 NOSIG =
TAF
TAF EDDH 272300Z 2800/2906 23010KT 9999 SCT040 BECMG 2807/2809 26015G25KT BECMG 2815/2817 24010KT =